EHI
0 0 0 0 0 0 0 0 0 0 0 0 0 0 0 0 0 0 0 0 0 0 0 0 0 0 0 0 0 0 0 0 0 0 0 0 0 0 0 0 0 0 0 0
0 0 0 0 0 0 0 0 0 0 0 0 0 0 0 0 0 0 0 0 0 0 0 0 0 0 0 0 0 0 0 0 0 0 0 0 0 0 0 0 0 0 0 0
0 0 0 0 0 0 0 0 0 0 0 0 0 0 0 0 0 0 0 0 1 0 0 0 0 0 0 0 0 0 0 0 0 0 0 0 0 0 0 0 0 0 0 0
0 0 0 0 0 0 0 0 0 0 0 0 0 0 0 0 0 0 0 0 0 0 0 0 0 0 0 0 0 0 0 0 0 0 0 0 0 0 0 0 0 0 0 0
0 0 0 0 0 0 0 0 0 0 0 0 0 0 0 0 0 0 0 0 0 0 0 0 0 0 0 0 0 0 0 0 0 0 0 0 0 0 0 0 0 0 0 0
0 0 0 0 0 0 0 0 0 0 0 0 0 0 0 0 0 0 0 0 0 0 0 0 0 0 0 0 0 0 0 0 0 0 0 0 0 0 0 0 0 0 0 0
0 0 0 0 0 0 0 0 0 0 0 0 0 0 0 0 0 0 0 0 0 0 0 0 0 0 0 0 0 0 0 0 0 0 0 0 0 0 0 0 0 0 0 0
0 0 0 0 0 0 0 0 0 0 0 0 0 0 0 0 0 0 0 0 0 0 0 0 0 0 0 0 0 0 0 0 0 0 0 0 0 0 0 0 0 0 0 0
0 0 0 0 0 0 0 0 0 0 0 0 0 0 0 0 0 0 0 0 0 0 0 0 0 0 0 0 0 0 0 0 0 0 0 0 0 0 0 0 0 0 0 0
0 0 0 0 0 0 0 0 0 0 0 0 0 0 0 0 0 0 0 0 0 0 0 0 0 0 0 0 0 0 0 0 0 0 0 0 0 0 0 0 0 0 0 0
0 0 0 0 0 0 0 0 0 0 0 0 0 0 0 0 0 0 0 0 0 0 0 0 0 0 0 0 0 0 0 0 0 0 0 0 0 0 0 0 0 0 0 0
0 0 0 0 0 0 0 0 0 0 0 0 0 0 0 0 0 0 0 0 0 0 0 0 0 0 0 0 0 0 0 0 0 0 0 0 0 0 0 0 0 0 0 0
0 0 0 0 0 0 0 0 0 0 0 0 0 0 0 0 0 0 0 0 0 0 0 0 0 0 0 0 0 0 0 0 0 0 0 0 0 0 0 0 0 0 0 0
0 0 0 0 0 0 0 0 0 0 0 0 0 0 0 0 0 0 0 0 0 0 0 0 0 0 0 0 0 0 0 0 0 0 0 0 0 0 0 0 0 0 0 0
0 0 0 0 0 0 0 0 0 0 0 0 0 0 0 0 0 0 0 0 0 0 0 0 0 0 0 0 0 0 0 0 0 0 0 0 0 0 0 0 0 0 0 0
0 0 0 0 0 0 0 0 0 0 0 0 0 0 0 0 0 0 0 0 0 0 0 0 0 0 0 0 0 0 0 0 0 0 0 0 0 0 0 0 0 0 0 0
0 0 0 0 0 0 0 0 0 0 0 0 0 0 0 0 0 0 0 0 0 0 0 0 0 0 0 0 0 0 0 0 0 0 0 0 0 0 0 0 0 0 0 0
0 0 0 0 0 0 0 0 0 0 0 0 0 0 0 0 0 0 0 0 0 0 0 0 0 0 0 0 0 0 0 0 0 0 0 0 0 0 0 0 0 0 0 0
0 0 0 0 0 0 0 0 0 0 0 0 0 0 0 0 0 0 0 0 0 0 0 0 0 0 0 0 0 0 0 0 0 0 0 0 0 0 0 0 0 0 0 0
0 0 0 0 0 0 0 0 0 0 0 0 0 0 0 0 0 0 0 0 0 0 0 0 0 0 0 0 0 0 0 0 0 0 0 0 0 0 0 0 0 0 0 0
0 0 0 0 0 0 0 0 0 0 0 0 0 0 0 0 0 0 0 0 0 0 0 0 0 0 0 0 0 0 0 0 0 0 0 0 0 0 0 0 0 0 0 0
0 0 0 0 0 0 0 0 0 0 0 0 0 0 0 0 0 0 0 0 0 0 0 0 0 0 0 0 0 0 0 0 0 0 0 0 0 0 0 0 0 0 0 0
0 0 0 0 0 0 0 0 0 0 0 0 0 0 0 0 0 0 0 0 0 0 0 0 0 0 0 0 0 0 0 0 0 0 0 0 0 0 0 0 0 0 0 0
0 0 0 0 0 0 0 0 0 0 0 0 0 0 0 0 0 0 0 0 0 0 0 0 0 0 0 0 0 0 0 0 0 0 0 0 0 0 0 0 0 0 0 0
0 0 0 0 0 0 0 0 0 0 0 0 0 0 0 0 0 0 0 0 0 0 0 0 0 0 0 0 0 0 0 0 0 0 0 0 0 0 0 0 0 0 0 0
0 0 0 0 0 0 0 0 0 0 0 0 0 0 0 0 0 0 0 0 0 0 0 0 0 0 0 0 0 0 0 0 0 0 0 0 0 0 0 0 0 0 0 0
0 0 0 0 0 0 0 0 0 0 0 0 0 0 0 0 0 0 0 0 0 0 0 0 0 0 0 0 0 0 0 0 0 0 0 0 0 0 0 0 0 0 0 0
Wind_Speed
5 4 3 4 4 4 6 7 7 7 7 9 6 4 4 2 1 0 1 2 2 3 2 2 1 1 1 1 1 2 3 3 3 2 2 2 2 2 2 2 2 2 2 1
3 2 2 4 5 5 5 5 5 4 7 7 4 2 2 2 1 2 3 3 3 3 3 3 3 3 2 2 2 2 3 3 2 2 2 2 2 2 2 2 2 2 2 1
3 4 3 5 5 4 3 4 5 6 7 3 2 2 3 3 3 4 5 4 4 5 5 5 4 4 4 3 2 2 2 2 2 2 2 2 2 2 2 2 2 1 2 1
1 2 5 7 3 4 4 4 5 4 4 3 4 4 3 3 4 5 5 5 5 5 4 4 4 3 3 3 3 2 2 1 1 2 2 2 2 2 2 2 2 2 2 2
2 2 6 7 3 3 3 5 4 4 4 3 2 3 5 3 3 5 5 5 5 5 4 3 4 4 3 3 3 2 2 2 2 2 2 2 3 3 2 2 2 2 2 2
3 3 6 6 3 1 2 4 4 3 4 2 1 1 6 5 3 4 3 2 2 1 1 2 3 4 4 3 3 3 3 3 2 2 3 3 3 3 2 2 2 2 1 1
4 5 7 6 3 2 2 6 4 3 3 2 3 6 6 4 3 3 2 1 0 1 2 2 3 4 4 4 5 4 3 2 2 2 3 3 3 2 2 2 2 1 1 1
4 4 8 2 2 3 5 4 3 3 3 3 4 5 4 3 2 1 1 1 0 1 1 1 3 5 4 5 5 3 2 2 2 2 2 2 3 2 2 3 2 2 1 1
7 7 4 2 3 3 2 2 3 4 5 3 3 4 3 3 2 1 1 1 0 1 1 1 2 4 5 5 3 3 2 2 2 2 2 3 3 3 2 2 2 2 2 2
3 5 5 4 3 3 2 2 4 4 4 3 4 4 3 3 2 1 1 1 0 1 1 2 2 3 4 3 3 4 3 3 2 2 2 2 2 3 3 3 3 3 3 3
4 5 5 4 3 4 4 4 4 5 4 4 4 4 3 3 2 2 1 1 1 2 3 3 3 3 2 2 4 4 4 3 3 3 3 3 3 3 4 4 5 5 4 4
7 6 4 6 6 4 4 5 5 5 7 6 4 4 4 3 3 3 2 2 2 2 3 3 2 3 2 3 4 5 4 3 3 3 2 2 2 1 3 3 5 6 5 5
7 5 5 6 6 5 4 6 6 5 5 6 5 4 4 3 3 2 2 3 3 3 3 3 2 3 3 3 4 5 5 4 3 3 3 3 3 3 2 2 2 4 5 6
5 3 5 5 6 6 5 6 5 5 5 5 5 4 3 3 2 2 3 3 3 2 2 2 2 3 3 3 4 5 4 4 4 3 3 3 3 3 3 3 2 2 3 5
6 6 6 5 5 5 4 4 4 5 6 5 4 3 2 2 3 4 3 2 1 2 3 2 3 3 3 3 4 4 4 3 3 3 3 3 3 3 3 3 3 2 1 2
5 4 4 4 6 6 4 4 4 5 5 5 5 3 3 2 3 3 3 1 2 3 3 3 4 4 3 3 3 3 3 5 4 3 3 3 3 3 3 3 3 3 3 3
3 4 4 4 5 5 5 5 4 5 4 5 5 4 3 2 2 3 3 2 3 4 3 4 4 3 3 3 3 3 3 3 4 3 3 3 3 4 4 3 3 3 4 4
6 6 6 6 6 6 6 4 3 3 4 5 4 3 3 2 3 4 4 3 2 2 3 3 3 2 2 3 3 2 2 2 3 3 3 3 3 3 3 3 4 4 3 3
4 4 4 5 5 5 4 4 3 3 4 4 3 3 4 3 3 3 3 2 2 4 5 3 3 2 2 3 3 2 2 3 2 2 2 3 3 3 3 3 3 4 3 3
3 3 3 3 3 3 3 3 3 3 3 3 2 3 3 4 3 3 3 3 3 4 4 3 2 2 2 3 3 2 3 3 3 3 2 3 3 3 3 3 4 4 4 4
2 2 2 2 3 3 3 3 3 3 3 2 2 3 4 4 3 2 2 3 4 3 3 3 2 2 1 1 3 2 2 3 3 3 3 3 3 3 3 3 3 3 3 3
2 2 3 2 3 3 3 3 3 3 3 3 3 3 3 3 3 2 3 3 4 4 2 1 2 2 2 1 1 2 2 2 3 3 3 3 3 3 3 3 3 3 3 3
3 2 3 3 3 3 3 3 2 2 3 3 3 3 3 3 2 2 3 3 2 3 2 2 2 3 3 1 1 2 2 2 2 2 3 3 3 3 3 3 3 3 3 3
3 3 3 2 1 1 3 4 3 3 3 3 3 3 3 2 2 2 3 3 3 4 2 2 3 3 2 1 1 1 2 2 2 2 2 2 2 2 2 2 2 3 3 3
3 3 2 2 2 2 3 3 3 3 3 2 3 3 3 2 2 3 2 2 3 3 2 2 3 3 1 1 1 1 1 2 2 2 2 2 2 2 2 2 2 2 2 3
3 3 3 3 3 2 2 2 2 2 2 3 3 3 3 2 2 2 2 2 2 2 2 2 2 2 1 1 1 1 1 2 2 2 2 2 2 2 2 2 3 2 3 3
3 2 2 2 2 2 2 2 3 3 3 3 3 3 3 2 2 2 2 1 1 1 1 1 1 1 1 1 1 1 1 1 1 1 1 2 2 2 2 2 2 2 2 3
Wind_Direction
243 251 228 235 245 209 197 199 202 229 234 260 269 265 268 256 247 266 287 272 241 229 228 238 244 246 225 214 198 183 167 171 191 191 176 163 162 164 161 161 163 157 152 153
291 300 275 269 265 235 221 211 216 232 260 261 271 278 299 274 237 251 261 253 248 245 226 223 227 222 206 206 198 178 179 190 188 165 164 159 163 156 150 153 145 139 156 164
269 307 341 282 249 218 215 211 194 219 242 266 294 279 255 252 244 246 256 252 237 232 231 226 219 206 196 194 171 158 174 178 175 171 179 189 170 150 159 160 147 162 181 181
222 360 253 248 253 209 215 246 223 225 236 231 240 258 266 248 234 245 252 254 245 236 236 231 211 197 185 161 156 167 170 167 167 177 185 184 173 176 178 170 174 186 197 198
151 224 273 288 267 204 212 269 244 224 251 259 267 342 316 279 231 238 245 249 243 230 223 210 194 183 164 162 162 166 181 198 200 185 186 183 193 191 184 171 182 197 195 186
153 193 238 252 274 248 128 273 265 237 250 259 99 326 280 283 265 264 269 268 266 231 175 182 191 167 159 170 175 199 208 213 203 189 186 194 197 186 163 163 183 183 187 189
182 218 258 258 285 85 152 256 296 275 255 228 209 228 259 283 273 257 257 284 303 147 169 186 175 162 168 178 202 212 204 195 189 189 192 190 176 160 156 158 146 153 172 213
168 204 250 266 99 168 229 276 299 294 281 262 261 279 290 289 284 284 320 358 53 128 144 152 162 165 179 204 213 197 178 180 192 195 196 174 160 161 161 158 155 171 171 235
193 215 249 270 220 245 227 276 292 294 291 286 287 286 288 290 287 279 253 231 191 155 143 175 179 181 195 213 194 177 177 192 203 199 186 173 169 169 164 168 175 189 190 216
256 269 278 283 276 279 273 279 293 293 294 292 285 285 285 287 271 257 258 257 235 151 185 241 231 219 215 203 177 173 184 198 194 183 186 182 181 177 176 182 189 196 202 217
259 276 300 296 291 299 315 318 317 317 312 295 285 286 273 266 252 244 242 236 209 209 224 242 239 239 227 190 174 178 190 196 193 189 187 192 200 200 197 204 202 200 207 204
235 237 230 268 285 292 299 302 306 315 317 315 292 277 277 266 247 221 223 224 228 230 236 247 236 230 231 203 184 179 186 196 198 194 198 197 197 236 242 229 230 226 219 212
238 251 244 260 277 282 283 289 296 296 290 298 297 279 272 270 261 241 224 219 226 234 233 231 228 236 234 207 187 187 194 199 193 194 200 201 196 193 226 278 261 242 234 231
243 249 265 263 266 279 282 287 292 294 294 292 292 290 286 284 282 267 250 237 235 236 242 230 218 238 240 210 194 195 195 203 200 198 200 202 204 203 201 205 231 263 250 236
246 235 239 260 276 288 289 292 299 302 304 306 302 294 290 282 278 278 274 252 237 248 247 228 227 243 226 206 203 201 196 197 200 198 198 201 200 199 202 208 216 235 263 259
258 257 248 256 268 282 288 281 282 288 294 297 300 292 284 276 278 286 291 254 218 247 249 230 236 241 217 200 201 203 206 211 203 195 194 195 197 198 203 208 213 218 227 233
226 250 253 259 265 275 273 263 260 270 284 290 288 288 297 313 316 309 304 282 239 246 248 235 240 238 210 199 201 206 202 202 204 200 199 202 200 202 205 206 211 219 229 227
218 226 232 233 244 263 275 274 273 279 279 281 287 296 298 291 287 290 296 297 291 294 281 254 241 229 213 206 208 204 191 195 200 202 201 205 209 203 199 203 212 222 237 233
237 236 247 248 245 246 255 263 269 271 275 282 285 284 283 282 281 287 298 305 296 289 286 273 255 229 218 220 215 198 190 192 198 205 201 209 214 208 206 210 216 222 226 225
263 258 252 253 256 254 263 271 273 280 281 281 283 288 296 296 298 298 298 284 269 264 274 282 260 236 228 218 216 201 196 195 198 203 202 204 211 215 216 219 220 223 225 226
273 269 248 246 267 276 273 270 266 276 284 283 264 261 271 286 292 290 293 293 298 297 291 291 279 259 242 221 211 202 199 200 202 205 205 209 216 221 221 222 224 226 229 233
288 267 252 254 271 288 289 280 274 277 283 284 277 271 280 291 297 299 278 267 284 298 299 273 264 262 258 237 204 195 204 209 211 210 208 209 214 220 223 225 228 233 235 236
278 267 255 255 261 277 297 298 288 276 270 270 271 269 267 270 270 271 287 288 291 298 296 264 279 289 265 232 207 199 205 213 217 218 217 216 218 222 225 227 231 233 236 241
277 280 277 273 281 306 305 303 300 286 276 273 272 271 270 281 292 274 270 285 293 298 291 284 293 293 271 244 216 214 221 222 219 219 224 226 226 228 231 234 240 244 245 247
265 272 276 277 273 272 280 300 311 308 304 299 298 293 287 266 262 276 283 280 288 301 308 301 302 307 284 233 215 221 234 239 227 214 217 222 228 232 237 240 244 250 257 259
253 253 253 247 245 256 273 283 287 288 293 300 300 298 298 296 284 280 283 285 290 305 310 304 301 306 289 256 242 240 247 261 252 240 235 236 240 241 247 250 253 255 260 264
266 261 266 280 281 265 257 259 265 269 263 260 277 284 284 288 291 292 295 296 297 301 302 304 302 293 287 276 262 264 267 267 260 250 246 246 246 249 251 252 257 262 264 268